Regional Weather Roundup
Issued by NWS

Home | Current Version | Previous Version | Graphics & Text | Print | Product List | Glossary On
Versions: 1 2 3 4 5 6 7 8 9 10 11 12 13 14 15 16 17 18 19 20 21 22 23 24 25 26 27 28 29 30 31 32 33 34 35 36 37 38 39 40 41 42 43 44 45 46 47 48 49 50
000
ASUS43 KBIS 231210
RWRND

NORTH DAKOTA REGIONAL WEATHER ROUNDUP
NATIONAL WEATHER SERVICE BISMARCK ND
700 AM CDT SAT JUL 23 2016

NOTE: "FAIR" INDICATES FEW OR NO CLOUDS BELOW 12,000 FEET WITH NO
SIGNIFICANT WEATHER AND/OR OBSTRUCTIONS TO VISIBILITY.


NDZ001>003-009>011-017-231300-
NORTHWEST NORTH DAKOTA

CITY           SKY/WX    TMP DP  RH WIND       PRES   REMARKS
WILLISTON      MOCLDY    67  62  84 SW7       29.82R
6HR MIN TEMP:  67; 6HR MAX TEMP:  72; 6HR PCP:  0.10;

MINOT          TSTM      68  65  90 VRB3      29.86R FOG
MINOT AFB      LGT RAIN  64  63  94 S17       29.79F
$$

NDZ018>021-031>035-040>046-231300-
SOUTHWEST NORTH DAKOTA

CITY           SKY/WX    TMP DP  RH WIND       PRES   REMARKS
BISMARCK       PTCLDY    69  63  81 E12       29.78F
6HR MIN TEMP:  67; 6HR MAX TEMP:  73; 6HR PCP:  0.04;

DICKINSON      PTCLDY    62  60  93 E8        29.81F
GARRISON         N/A     67  64  90 MISG      29.89R
6HR MIN TEMP:  65; 6HR MAX TEMP:  71; 6HR PCP:  0.43;

HETTINGER ARPT MOCLDY    66  60  81 SE6       29.81S
$$

NDZ004>008-012>016-024-026-027-054-231300-
NORTHEAST NORTH DAKOTA

CITY           SKY/WX    TMP DP  RH WIND       PRES   REMARKS
GRAND FORKS    LGT RAIN  70  63  78 E5        29.84F
GRND FRKS AFB  CLOUDY    69  63  81 S9        29.84F
DEVILS LAKE    LGT RAIN  67  65  93 SE3       29.86F
$$

NDZ022-023-025-028>030-036>039-047>053-231300-
SOUTHEAST NORTH DAKOTA

CITY           SKY/WX    TMP DP  RH WIND       PRES   REMARKS
FARGO          CLOUDY    73  62  68 SE6       29.84F
6HR MIN TEMP:  73; 6HR MAX TEMP:  77;

JAMESTOWN      CLOUDY    68  65  90 N5        29.82F
$$





USA.gov is the U.S. government's official web portal to all federal, state and local government web resources and services.